Gainesville, FL

1:40 AM EST on December 11, 2019 (GMT -0500)
Gainesville Regional

Weather History for KGNV - November, 2019

Change the Weather History Date:

Monday, November 18, 2019

  Actual Average Record
Temperature  
Mean Temperature 59 °F 62 °F  
Max Temperature 72 °F 74 °F 88 °F (1957)
Min Temperature 46 °F 50 °F 29 °F (1970)
Degree Days  
Heating Degree Days 6 5  
Month to date heating degree days 90 63  
Since 1 July heating degree days 90 90  
Cooling Degree Days 0 2  
Month to date cooling degree days 36 49  
Year to date cooling degree days 3394 2599  
Growing Degree Days 9 (Base 50)    
Moisture  
Dew Point 48 °F    
Average Humidity 76    
Maximum Humidity 100    
Minimum Humidity 46    
Precipitation  
Precipitation 0.00 in 0.06 in 1.03 in (2015)
Month to date precipitation 1.51 1.25  
Year to date precipitation 43.34 44.12  
Snow  
Snow 0.00 in 0.00 in 0.00 in ()
Month to date snowfall 0.0 0.0  
Since 1 July snowfall 0.0 0.0  
Since 1 September snowfall 0.0 0.0  
Snow Depth 0.00 in    
Sea Level Pressure  
Sea Level Pressure 29.88 in    
Wind  
Wind Speed 3 mph ()    
Max Wind Speed 14 mph    
Max Gust Speed 17 mph    
Visibility 9.6 miles    
Events      
T = Trace of Precipitation, MM = Missing Value Source: Averaged Metar Reports

Daily Weather History Graph

Daily Weather History Graph

Search for Another Location

Airport or City:

Astronomy

Nov. 18, 2019 Rise Set
Actual Time 6:55 AM EST 5:32 PM EST
Civil Twilight 6:30 AM EST 5:57 PM EST
Nautical Twilight 6:01 AM EST 6:26 PM EST
Astronomical Twilight 5:33 AM EST 6:55 PM EST
Moon 11:16 PM EST (11/18) 12:23 PM EST (11/18)
Length of Visible Light 11h 27m
Length of Day
10h 36m
Waning Gibbous, 63% of the Moon is Illuminated
Nov 18
Waning Gibbous
Nov 19
Last Quarter
Nov 26
New
Dec 4
First Quarter
Dec 12
Full

Hourly Weather History & Observations

Time (EST) Temp. Dew Point Humidity Pressure Visibility Wind Dir Wind Speed Gust Speed Precip Events Conditions
12:53 AM 48.9 °F 46.9 °F 93% 29.92 in 9.0 mi Calm Calm - N/A   Overcast
1:53 AM 48.9 °F 46.0 °F 90% 29.90 in 10.0 mi Calm Calm - N/A   Clear
2:53 AM 48.0 °F 46.0 °F 93% 29.90 in 9.0 mi West 3.5 mph - N/A   Clear
3:53 AM 50.0 °F 48.0 °F 93% 29.90 in 10.0 mi Calm Calm - N/A   Overcast
4:53 AM 50.0 °F 48.0 °F 93% 29.91 in 9.0 mi West 4.6 mph - N/A   Overcast
5:14 AM 50.0 °F 48.0 °F 93% 29.90 in 10.0 mi Calm Calm - N/A   Mostly Cloudy
5:53 AM 48.0 °F 46.0 °F 93% 29.91 in 8.0 mi Calm Calm - N/A   Clear
6:53 AM 48.9 °F 46.9 °F 93% 29.92 in 8.0 mi West 4.6 mph - N/A   Mostly Cloudy
7:53 AM 50.0 °F 48.0 °F 93% 29.93 in 6.0 mi Calm Calm - N/A   Mostly Cloudy
8:53 AM 55.0 °F 52.0 °F 89% 29.91 in 10.0 mi Calm Calm - N/A   Clear
9:53 AM 62.1 °F 52.0 °F 70% 29.92 in 10.0 mi West 9.2 mph - N/A   Clear
10:53 AM 66.9 °F 52.0 °F 59% 29.90 in 10.0 mi West 10.4 mph - N/A   Clear
11:53 AM 68.0 °F 53.1 °F 59% 29.88 in 10.0 mi West 10.4 mph - N/A   Scattered Clouds
12:53 PM 70.0 °F 52.0 °F 53% 29.84 in 10.0 mi WSW 9.2 mph - N/A   Partly Cloudy
1:53 PM 71.1 °F 51.1 °F 49% 29.83 in 10.0 mi WNW 10.4 mph - N/A   Partly Cloudy
2:53 PM 71.1 °F 50.0 °F 47% 29.81 in 10.0 mi West 9.2 mph - N/A   Partly Cloudy
3:53 PM 70.0 °F 48.0 °F 46% 29.81 in 10.0 mi West 12.7 mph - N/A   Clear
4:53 PM 66.9 °F 48.9 °F 52% 29.81 in 10.0 mi WSW 6.9 mph - N/A   Clear
5:53 PM 60.1 °F 48.0 °F 64% 29.84 in 10.0 mi SW 4.6 mph - N/A   Clear
6:53 PM 55.0 °F 46.0 °F 72% 29.85 in 10.0 mi WSW 6.9 mph - N/A   Clear
7:53 PM 57.0 °F 45.0 °F 64% 29.86 in 10.0 mi WSW 8.1 mph - N/A   Clear
8:53 PM 52.0 °F 46.0 °F 80% 29.86 in 10.0 mi West 5.8 mph - N/A   Clear
9:53 PM 52.0 °F 46.0 °F 80% 29.87 in 10.0 mi Calm Calm - N/A   Clear
10:53 PM 46.9 °F 45.0 °F 93% 29.88 in 10.0 mi Calm Calm - N/A   Clear
11:53 PM 48.0 °F 45.0 °F 89% 29.88 in 10.0 mi Calm Calm - N/A   Clear